Overview Statistics Trail Chart Weather Telemetry Raw packets
 

This is the latest recevied weather packets stored in our database for station/object KD0MAC. If no packets are shown the sender has not sent any weather packets the latest 10 day(s).

<< 67 68 69 70 71 72 73 >>
Time Temp. Humidity Pressure Rain* Wind** Luminosity Snow
1788292929 35.56° C 32% 1014.2 hPa 0 mm - 210 W/m² -
1788292631 36.67° C 30% 1014.2 hPa 0 mm - 572 W/m² -
1788292330 36.11° C 36% 1014.2 hPa 0 mm - 560 W/m² -
1788292030 33.89° C 38% 1014.2 hPa 0 mm - 170 W/m² -
1788291730 34.44° C 36% 1014.2 hPa 0 mm - 133 W/m² -
1788291430 35.56° C 34% 1014.2 hPa 0 mm - 130 W/m² -
1788290830 36.11° C 34% 1014.6 hPa 0 mm - 542 W/m² -
1788290529 36.11° C 33% 1014.6 hPa 0 mm - 537 W/m² -
1788290232 36.11° C 34% 1014.6 hPa 0 mm - 541 W/m² -
1788289931 36.67° C 35% 1014.6 hPa 0 mm - 548 W/m² -
1788289630 36.11° C 34% 1014.6 hPa 0 mm - 551 W/m² -
1788289330 36.11° C 34% 1014.6 hPa 0 mm - 550 W/m² -
1788289030 35.56° C 38% 1014.6 hPa 0 mm - 551 W/m² -
1788288730 35.56° C 37% 1014.6 hPa 0 mm - 548 W/m² -
1788288430 36.11° C 36% 1014.9 hPa 0 mm - 538 W/m² -
1788288129 35.56° C 35% 1014.9 hPa 0 mm - 553 W/m² -
1788287830 35.56° C 36% 1014.9 hPa 0 mm - 556 W/m² -
1788287529 35.56° C 40% 1014.9 hPa 0 mm - 556 W/m² -
1788287230 35.56° C 36% 1014.9 hPa 0 mm - 553 W/m² -
1788286931 35.56° C 35% 1015.2 hPa 0 mm - 559 W/m² -
1788286629 35° C 38% 1015.2 hPa 0 mm - 566 W/m² -
1788286330 35° C 40% 1015.2 hPa 0 mm - 504 W/m² -
1788286030 34.44° C 37% 1015.2 hPa 0 mm - 540 W/m² -
1788285732 35° C 35% 1015.2 hPa 0 mm - 558 W/m² -
1788285429 34.44° C 41% 1015.6 hPa 0 mm - 380 W/m² -

* Rain latest hour (hover to see other rain measurements)
** Current wind speed in m/s (hover to see current wind gust speed)